Regional Weather Roundup
Issued by NWS Jackson, KY

Home | Current Version | Previous Version | Graphics & Text | Print | Product List | Glossary On
Versions: 1 2 3 4 5 6 7 8 9 10 11 12 13 14 15 16 17 18 19 20 21 22 23 24 25 26 27 28 29 30 31 32 33 34 35 36 37 38 39 40 41 42 43 44 45 46 47 48 49 50
000
ASUS43 KJKL 300619
RWRJKL

EAST KENTUCKY HOURLY WEATHER ROUNDUP
NATIONAL WEATHER SERVICE JACKSON KY
200 AM EDT SAT AUG 30 2014

NOTE: "FAIR" INDICATES FEW OR NO CLOUDS BELOW 12,000 FEET WITH
NO SIGNIFICANT WEATHER AND/OR OBSTRUCTIONS TO VISIBILITY.

* THESE REPORTS ARE NOT UNDER NWS QUALITY CONTROL AND MAY NOT
  REPORT WEATHER SUCH AS PRECIPITATION AND FOG.

KYZ079-080-083-085-087-088-110-112-115-119-120-300700
...EASTERN KENTUCKY...

CITY           SKY/WX    TMP DP  RH WIND       PRES   REMARKS
JACKSON          N/A     74  69  85 SE5       30.12S
6HR MIN TEMP:  74; 6HR MAX TEMP:  78;

LONDON           N/A     72  69  90 CALM      30.12S FOG
6HR MIN TEMP:  72; 6HR MAX TEMP:  84;

SOMERSET*        N/A     68  68 100 CALM      30.11S
MONTICELLO*      N/A     68  67  96 CALM      30.12R
6HR MIN TEMP:  67; 6HR MAX TEMP:  78;

MIDDLESBORO*     N/A     68  65  91 CALM      30.15R
6HR MIN TEMP:  68; 6HR MAX TEMP:  81;

HARLAN APT*      N/A     70  70 100 MISG      30.16S
HAZARD APT*    CLOUDY    73  73 100 CALM      30.13
BLACK MTN*       N/A     66  64  94 CALM        N/A
PIKEVILLE APT* MOCLDY    72  68  88 S5        30.14S
BIG SANDY*     CLOUDY    74  70  86 S6        30.13S
6HR MIN TEMP:  72; 6HR MAX TEMP:  75;

MOREHEAD APT*  CLOUDY    73  70  88 CALM      30.11S
ASHLAND*       MOCLDY    72  66  83 CALM      30.07R
$$

KYZ035-036-041-042-044-050-067-078-099-300700
...CENTRAL KENTUCKY...

CITY           SKY/WX    TMP DP  RH WIND       PRES   REMARKS
MT STERLING*     N/A     70  70 100 S5        30.10F
FLEMING/MASON* PTCLDY    72  70  94 S6        30.09F
DANVILLE*        N/A     68  64  88 CALM      30.10S
RICHMOND*        N/A     72  68  88 CALM      30.09S
LEXINGTON        N/A     75  70  84 SE5       30.09S
6HR MIN TEMP:  74; 6HR MAX TEMP:  85;

FRANKFORT        N/A     71  67  87 CALM      30.06S
6HR MIN TEMP:  70; 6HR MAX TEMP:  83;

$$

KYZ091>093-OHZ055-061-077-WVZ005-015-034-035-042-300700
...SOUTHERN OHIO/WEST VIRGINIA...

CITY           SKY/WX    TMP DP  RH WIND       PRES   REMARKS
COVINGTON        N/A     73  68  84 S6        30.05F
COLUMBUS         N/A     77  60  55 SE8       30.07S
DAYTON           N/A     73  67  81 SE8       30.06F
WILMINGTON       N/A     71  64  78 S5        30.07F
HUNTINGTON     MOCLDY    73  71  93 SE3       30.08S
CHARLESTON     MOCLDY    71  70  96 CALM      30.11S
PINEVILLE*       N/A     71  71 100 MISG      30.23S
BECKLEY        CLOUDY    69  64  84 SE10      30.23R
BLUEFIELD        N/A     71  64  78 VRB6      30.27R
$$

VAZ002-007-008-TNZ017-027-036-066-071-300700
...SOUTHWEST VIRGINIA/EAST TENNESSEE...

CITY           SKY/WX    TMP DP  RH WIND       PRES   REMARKS
WISE*            N/A     68  68 100 W3        30.25R
JONESVILLE*      N/A     70  70 100 CALM      30.17F
ABINGDON*        N/A     69  68  94 CALM      30.22S
BRISTOL          N/A     69  66  90 CALM      30.18S
KNOXVILLE        N/A     72  65  78 NE3       30.10S
OAK RIDGE        N/A     72  68  87 CALM      30.13S
CROSSVILLE       N/A     69  62  78 CALM      30.16S
NASHVILLE        N/A     72  65  78 S3        30.07R
$$

...KEY TO REMARKS...
VSB - VISIBILITY IN MILES
WCI - WIND CHILL INDEX
HX  - HEAT INDEX

$$



USA.gov is the U.S. government's official web portal to all federal, state and local government web resources and services.